EW4944 Weather Reports


Display with metric or nautical units.
time (UTC)temp
F
wind
direction
speed
MPH
gust
MPH
rain 1hr
in
rain 24hr
in
rain mn
in
humidity
%
barometer
mb
20260508065054 48 0.0 0.0 0.00 0.24 0.00 66 1010.1
20260508064602 47 0.0 0.0 0.00 0.24 0.00 64 1009.8
20260508064057 47 0.0 0.0 0.00 0.24 0.00 64 1009.5
20260508063557 47 0.0 0.0 0.00 0.24 0.00 65 1009.3
20260508063104 47 0.0 0.0 0.00 0.24 0.00 65 1009.2
20260508062555 47 0.0 0.0 0.00 0.24 0.00 64 1009.1
20260508062053 47 0.0 0.0 0.00 0.24 0.00 62 1009.0
20260508061558 48 0.0 0.0 0.00 0.24 0.00 61 1008.8
20260508061057 48 0.0 0.0 0.00 0.24 0.00 62 1008.9
20260508060558 47 0.0 0.0 0.00 0.24 0.00 65 1009.0
20260508060055 47 0.0 0.0 0.00 0.24 0.00 66 1009.0
20260508055557 47 0.0 0.0 0.00 0.24 0.00 66 1008.9
20260508055056 47 0.0 0.0 0.00 0.24 0.00 66 1008.8
20260508054555 46 0.0 0.0 0.00 0.24 0.00 66 1008.7
20260508054055 46 0.0 0.0 0.00 0.24 0.00 68 1008.5
20260508053557 46 0.0 0.0 0.00 0.24 0.00 70 1008.7
20260508053105 45 0.0 0.0 0.00 0.24 0.00 72 1008.7
20260508052556 45 0.0 0.0 0.00 0.24 0.00 74 1008.7
20260508052101 45 0.0 0.0 0.00 0.24 0.00 75 1008.6
20260508051557 44 0.0 0.0 0.00 0.24 0.00 75 1008.7
20260508051054 44 0.0 0.0 0.00 0.24 0.00 74 1008.6
20260508050557 44 0.0 0.0 0.00 0.24 0.00 73 1008.6
20260508045557 45 0.0 0.0 0.00 0.24 0.00 72 1008.5
20260508045055 45 0.0 0.0 0.00 0.24 0.00 71 1008.6
20260508044556 45 0.0 0.0 0.00 0.24 0.00 71 1008.6
20260508044101 45 0.0 0.0 0.00 0.24 0.00 71 1008.6
20260508043558 45 0.0 0.0 0.00 0.24 0.00 71 1008.8
20260508043104 46 0.0 0.0 0.00 0.24 0.00 71 1008.8
20260508042559 46 0.0 0.0 0.00 0.24 0.00 70 1008.8
20260508042059 46 0.0 0.0 0.00 0.24 0.00 69 1008.8
20260508041601 47 0.0 0.0 0.00 0.24 0.00 69 1008.8
20260508041059 47 0.0 0.0 0.00 0.24 0.00 69 1008.9
20260508040559 47 0.0 0.0 0.00 0.24 0.00 69 1008.9
20260508040059 46 0.0 0.0 0.00 0.24 0.00 70 1009.0
20260508035600 46 0.0 0.0 0.00 0.24 0.24 70 1009.0
20260508035059 46 0.0 0.0 0.00 0.24 0.24 70 1008.9
20260508034612 46 0.0 0.0 0.00 0.24 0.24 70 1008.9
20260508034058 46 0.0 0.0 0.00 0.24 0.24 71 1009.0
20260508033559 46 0.0 0.0 0.00 0.24 0.24 72 1009.0
20260508033056 46 0.0 0.0 0.00 0.24 0.24 72 1009.0
20260508032559 46 0.0 0.0 0.00 0.24 0.24 72 1008.9
20260508032058 46 0.0 0.0 0.00 0.24 0.24 72 1009.0
20260508031556 46 0.0 0.0 0.00 0.24 0.24 72 1009.0
20260508031059 46 0.0 0.0 0.00 0.24 0.24 72 1009.1
20260508030558 47 0.0 0.0 0.00 0.24 0.24 71 1009.0
20260508030059 47 0.0 0.0 0.00 0.24 0.24 71 1009.1
20260508025558 47 0.0 0.0 0.00 0.28 0.24 70 1009.1
20260508025058 47 0.0 0.0 0.00 0.28 0.24 70 1009.1
20260508024556 47 0.0 0.0 0.00 0.28 0.24 70 1009.0
20260508024059 47 0.0 0.0 0.00 0.28 0.24 71 1009.1
20260508023559 47 0.0 0.0 0.00 0.28 0.24 71 1009.0
20260508023058 47 0.0 0.0 0.00 0.28 0.24 72 1009.0
20260508022559 47 0.0 0.0 0.00 0.28 0.24 72 1009.0
20260508022059 47 0.0 0.0 0.00 0.28 0.24 72 1009.0
20260508021601 47 0.0 0.0 0.00 0.28 0.24 72 1009.0
20260508021058 47 0.0 0.0 0.00 0.28 0.24 71 1008.8
20260508020558 47 0.0 0.0 0.00 0.28 0.24 71 1009.0
20260508020105 48 0.0 0.0 0.00 0.28 0.24 71 1008.9
20260508015558 48 0.0 0.0 0.00 0.28 0.24 71 1009.0
20260508015058 48 0.0 0.0 0.00 0.28 0.24 71 1008.8
20260508014558 48 0.0 0.0 0.00 0.28 0.24 70 1008.8
20260508014057 48 0.0 0.0 0.00 0.28 0.24 69 1008.8
20260508013557 48 0.0 0.0 0.00 0.28 0.24 69 1008.7
20260508013101 49 0.0 0.0 0.00 0.28 0.24 69 1008.6
20260508012554 49 0.0 0.0 0.00 0.28 0.24 68 1008.6
20260508012053 49 0.0 0.0 0.00 0.28 0.24 67 1008.6
20260508011604 50 0.0 0.0 0.00 0.28 0.24 65 1008.5
20260508011053 50 0.0 0.0 0.00 0.28 0.24 63 1008.6
20260508010557 50 0.0 0.0 0.00 0.28 0.24 61 1008.6
20260508010054 50 0.0 0.0 0.00 0.28 0.24 61 1008.4
20260508005600 50 0.0 0.0 0.00 0.28 0.24 63 1008.4
20260508005100 51 0.0 0.0 0.00 0.28 0.24 63 1008.3
20260508004556 51 0.0 0.0 0.00 0.28 0.24 60 1008.1
20260508004057 52 0.0 0.0 0.00 0.28 0.24 57 1008.2
20260508003554 52 0.0 0.0 0.00 0.28 0.24 55 1008.1
20260508003055 53 0.0 0.0 0.00 0.28 0.24 53 1007.8
20260508002556 53 0.0 0.0 0.00 0.28 0.24 53 1007.7
20260508002056 54 0.0 0.0 0.00 0.28 0.24 52 1007.7
20260508001613 54 0.0 0.0 0.00 0.28 0.24 53 1007.8
20260508001054 54 0.0 0.0 0.00 0.28 0.24 53 1007.9
20260508000556 54 0.0 0.0 0.00 0.28 0.24 52 1007.7
20260508000056 55 0.0 0.0 0.00 0.28 0.24 50 1007.7
20260507235600 55 0.0 0.0 0.00 0.28 0.24 51 1007.5
20260507235056 56 0.0 0.0 0.00 0.28 0.24 50 1007.5
20260507234557 56 1.0 1.0 0.00 0.28 0.24 49 1007.3
20260507234106 57 1.0 7.0 0.00 0.28 0.24 48 1007.3
20260507233557 57 0 1.0 7.0 0.00 0.28 0.24 47 1007.3
20260507233055 57 338 1.0 4.0 0.00 0.28 0.24 48 1007.2
20260507232557 57 360 1.0 7.0 0.00 0.28 0.24 48 1007.1
20260507232053 58 0 2.0 7.0 0.00 0.28 0.24 48 1007.2
20260507231557 58 329 0.0 6.0 0.00 0.28 0.24 45 1007.0
20260507231056 58 309 2.0 9.0 0.00 0.28 0.24 45 1007.1
20260507230557 58 283 3.0 9.0 0.00 0.28 0.24 45 1007.0
20260507230056 59 0 2.0 10.0 0.00 0.28 0.24 43 1007.0
20260507225556 59 310 3.0 13.0 0.00 0.28 0.24 45 1007.0
20260507225054 59 360 5.0 13.0 0.00 0.28 0.24 43 1006.9
20260507224600 60 342 2.0 11.0 0.00 0.28 0.24 45 1006.9
20260507224053 60 48 3.0 11.0 0.00 0.28 0.24 43 1006.9
20260507223557 60 58 3.0 9.0 0.00 0.28 0.24 43 1006.9
20260507223056 60 9 2.0 8.0 0.00 0.28 0.24 43 1006.9
20260507222555 60 335 1.0 8.0 0.00 0.28 0.24 46 1006.9
20260507222053 60 284 2.0 8.0 0.00 0.28 0.24 44 1006.9
20260507221557 60 297 3.0 10.0 0.00 0.28 0.24 44 1006.8
20260507221054 61 338 4.0 10.0 0.00 0.28 0.24 42 1006.9
20260507220558 61 284 3.0 11.0 0.00 0.28 0.24 41 1006.8
20260507220055 61 275 4.0 11.0 0.00 0.28 0.24 42 1006.8
20260507215555 61 269 4.0 11.0 0.00 0.28 0.24 44 1006.7
20260507215055 61 313 4.0 8.0 0.00 0.28 0.24 42 1006.8
20260507214559 61 286 3.0 8.0 0.00 0.28 0.24 42 1006.8
20260507214054 61 238 2.0 9.0 0.00 0.28 0.24 44 1006.7
20260507213556 61 275 3.0 9.0 0.00 0.28 0.24 44 1006.7
20260507213055 61 283 3.0 10.0 0.00 0.28 0.24 42 1006.8
20260507212557 61 313 4.0 11.0 0.00 0.28 0.24 45 1006.7
20260507212055 62 305 4.0 17.0 0.00 0.28 0.24 42 1006.6
20260507211555 62 30 4.0 17.0 0.00 0.28 0.24 39 1006.6
20260507211055 63 301 5.0 17.0 0.00 0.28 0.24 39 1006.5
20260507210558 63 296 3.0 9.0 0.00 0.28 0.24 42 1006.6
20260507210056 62 279 1.0 7.0 0.00 0.28 0.24 45 1006.5
20260507205555 61 300 1.0 9.0 0.00 0.29 0.24 44 1006.4
20260507205055 61 288 2.0 10.0 0.00 0.29 0.24 44 1006.5
20260507204558 62 304 3.0 10.0 0.00 0.29 0.24 43 1006.4
20260507204054 63 296 4.0 10.0 0.00 0.29 0.24 45 1006.4
20260507203555 63 291 4.0 11.0 0.00 0.29 0.24 40 1006.4
20260507203055 64 315 4.0 11.0 0.00 0.29 0.24 40 1006.4
20260507202559 63 290 4.0 12.0 0.00 0.29 0.24 43 1006.3
20260507202054 63 269 4.0 12.0 0.00 0.29 0.24 40 1006.3
20260507201600 64 329 5.0 15.0 0.00 0.29 0.24 39 1006.4
20260507201057 63 281 5.0 15.0 0.00 0.29 0.24 39 1006.5
20260507200556 64 298 5.0 11.0 0.00 0.29 0.24 39 1006.4
20260507200108 65 10 4.0 14.0 0.00 0.29 0.24 42 1006.6
20260507195553 63 350 5.0 14.0 0.00 0.29 0.24 43 1006.5
20260507195057 63 350 5.0 14.0 0.00 0.29 0.24 43 1006.6
20260507194554 64 53 8.0 14.0 0.00 0.29 0.24 42 1006.6
20260507194055 64 43 4.0 10.0 0.00 0.29 0.24 45 1006.7
20260507193554 65 262 3.0 10.0 0.00 0.29 0.24 46 1006.8
20260507193056 64 339 4.0 10.0 0.00 0.29 0.24 44 1006.9
20260507192555 63 307 3.0 11.0 0.00 0.29 0.24 43 1006.9
20260507192059 64 30 3.0 11.0 0.00 0.29 0.24 40 1007.0
20260507191600 65 13 3.0 14.0 0.00 0.29 0.24 42 1007.1
20260507191055 64 265 5.0 14.0 0.00 0.29 0.24 42 1007.1
20260507190555 64 281 6.0 14.0 0.00 0.29 0.24 38 1007.2
20260507190057 64 304 4.0 10.0 0.00 0.29 0.24 41 1007.2
20260507185554 64 9 3.0 13.0 0.00 0.32 0.24 44 1007.3
20260507185054 65 298 3.0 13.0 0.00 0.32 0.24 42 1007.4
20260507184605 64 295 4.0 10.0 0.00 0.32 0.24 46 1007.4
20260507184054 65 39 5.0 15.0 0.00 0.32 0.24 40 1007.5
20260507183556 65 261 5.0 15.0 0.00 0.32 0.24 44 1007.5
20260507183103 65 294 4.0 11.0 0.00 0.32 0.24 41 1007.6
20260507182556 64 273 3.0 14.0 0.00 0.32 0.24 42 1007.5
20260507182055 65 303 4.0 14.0 0.00 0.32 0.24 41 1007.6
20260507181606 65 274 7.0 14.0 0.00 0.32 0.24 39 1007.5
20260507181057 64 295 5.0 12.0 0.00 0.32 0.24 47 1007.6
20260507180555 63 288 3.0 12.0 0.00 0.32 0.24 43 1007.7
20260507180059 64 80 4.0 12.0 0.00 0.32 0.24 41 1007.6
20260507175600 65 274 4.0 9.0 0.00 0.34 0.24 44 1007.6
20260507175055 65 286 4.0 13.0 0.00 0.34 0.24 45 1007.8
20260507174609 64 288 5.0 13.0 0.00 0.34 0.24 44 1007.9
20260507174052 64 10 4.0 11.0 0.00 0.34 0.24 46 1007.9
20260507173555 64 298 4.0 10.0 0.00 0.34 0.24 52 1007.9
20260507173100 63 10 5.0 10.0 0.00 0.34 0.24 47 1008.0
20260507172556 63 286 3.0 11.0 0.00 0.34 0.24 44 1008.2
20260507172054 63 284 5.0 11.0 0.00 0.34 0.24 41 1008.2
20260507171606 64 300 5.0 10.0 0.00 0.34 0.24 46 1008.4
20260507171056 63 261 3.0 11.0 0.00 0.34 0.24 50 1008.3
20260507170555 63 342 4.0 11.0 0.00 0.34 0.24 48 1008.6
20260507170059 61 348 5.0 13.0 0.00 0.34 0.24 41 1008.6
20260507165556 61 9 4.0 13.0 0.00 0.34 0.24 40 1008.7
20260507165056 62 327 5.0 14.0 0.00 0.34 0.24 50 1008.7
20260507164557 61 281 4.0 14.0 0.00 0.34 0.24 44 1008.7
20260507164100 61 335 4.0 12.0 0.00 0.34 0.24 47 1008.8
20260507163553 61 273 5.0 12.0 0.00 0.34 0.24 48 1008.9
20260507163059 61 5 7.0 12.0 0.00 0.34 0.24 44 1009.0
20260507162557 61 297 4.0 15.0 0.00 0.34 0.24 49 1009.0
20260507162056 61 328 7.0 15.0 0.00 0.34 0.24 45 1009.1
20260507161556 61 282 5.0 14.0 0.00 0.34 0.24 48 1009.0
20260507161055 61 72 3.0 13.0 0.00 0.34 0.24 46 1009.2
20260507160556 60 318 2.0 13.0 0.00 0.34 0.24 51 1009.2
20260507160057 60 44 5.0 13.0 0.00 0.34 0.24 47 1009.3
20260507155556 61 327 5.0 13.0 0.00 0.34 0.24 50 1009.2
20260507155056 61 325 5.0 12.0 0.00 0.34 0.24 47 1009.4
20260507154602 61 336 4.0 12.0 0.00 0.34 0.24 55 1009.3
20260507154057 60 13 4.0 13.0 0.00 0.34 0.24 50 1009.6
20260507153557 60 290 6.0 13.0 0.00 0.34 0.24 51 1009.5
20260507153102 60 302 4.0 10.0 0.00 0.34 0.24 51 1009.5
20260507152557 60 282 5.0 14.0 0.00 0.34 0.24 48 1009.6
20260507152057 60 301 4.0 14.0 0.00 0.34 0.24 57 1009.7
20260507151559 60 265 7.0 14.0 0.00 0.34 0.24 50 1009.6
20260507151057 60 287 6.0 13.0 0.00 0.34 0.24 52 1009.8
20260507150557 60 36 3.0 11.0 0.00 0.34 0.24 55 1009.7
20260507150058 60 10 5.0 9.0 0.00 0.34 0.24 54 1009.8
20260507145556 59 311 4.0 12.0 0.00 0.34 0.24 56 1009.7
20260507145057 59 360 3.0 12.0 0.00 0.34 0.24 52 1009.7
20260507144556 57 36 3.0 13.0 0.00 0.34 0.24 51 1009.7
20260507144057 58 302 5.0 13.0 0.00 0.34 0.24 55 1009.7
20260507143556 57 29 6.0 12.0 0.00 0.34 0.24 50 1009.9
20260507143055 58 273 5.0 12.0 0.00 0.34 0.24 55 1009.8
20260507142556 57 65 6.0 12.0 0.00 0.34 0.24 55 1009.9
20260507142057 57 304 4.0 10.0 0.00 0.34 0.24 53 1009.9
20260507141557 57 28 4.0 10.0 0.00 0.34 0.24 59 1009.8
20260507141057 57 317 5.0 15.0 0.00 0.34 0.24 58 1009.7
20260507140558 57 297 5.0 15.0 0.00 0.34 0.24 62 1009.8
20260507140103 57 296 3.0 11.0 0.00 0.34 0.24 62 1009.9
20260507135559 57 289 4.0 11.0 0.00 0.34 0.24 63 1009.8
20260507135057 56 292 3.0 13.0 0.00 0.34 0.24 67 1009.9
20260507134600 56 277 5.0 13.0 0.00 0.34 0.24 70 1009.8
20260507134057 55 47 6.0 13.0 0.00 0.34 0.24 68 1009.8
20260507133557 55 307 6.0 16.0 0.00 0.34 0.24 74 1009.8
20260507133106 55 325 3.0 16.0 0.00 0.34 0.24 75 1009.7
20260507132555 55 271 6.0 16.0 0.00 0.34 0.24 76 1009.4
20260507132057 54 261 4.0 10.0 0.00 0.34 0.24 79 1009.6
20260507131602 54 350 3.0 8.0 0.00 0.34 0.24 83 1009.4
20260507131058 54 334 2.0 7.0 0.00 0.34 0.24 89 1009.6
20260507130557 52 0 2.0 8.0 0.00 0.34 0.24 90 1009.7
20260507130110 53 294 2.0 8.0 0.00 0.34 0.24 91 1009.6
20260507125603 51 311 2.0 9.0 0.00 0.34 0.24 93 1009.7
20260507125100 50 265 1.0 13.0 0.00 0.34 0.24 94 1009.5
20260507124558 50 348 3.0 13.0 0.00 0.34 0.24 94 1009.6
20260507124054 50 335 3.0 10.0 0.00 0.34 0.24 95 1009.7
20260507123554 50 5 2.0 9.0 0.00 0.34 0.24 95 1009.6
20260507123057 49 13 2.0 9.0 0.00 0.34 0.24 96 1009.6
20260507122554 49 329 1.0 10.0 0.00 0.34 0.24 96 1009.6
20260507122058 49 327 2.0 11.0 0.00 0.34 0.24 96 1009.6
20260507121607 48 5 4.0 11.0 0.00 0.34 0.24 96 1009.7
20260507121055 48 0 3.0 10.0 0.00 0.34 0.24 96 1009.8
20260507120557 48 294 2.0 10.0 0.00 0.34 0.24 96 1009.8
20260507115558 48 286 2.0 9.0 0.00 0.34 0.24 96 1009.4
20260507115058 48 11 3.0 9.0 0.00 0.34 0.24 96 1009.2
20260507114613 48 252 2.0 8.0 0.00 0.34 0.24 96 1009.3
20260507114100 48 322 2.0 5.0 0.00 0.34 0.24 96 1009.2
20260507113558 48 291 1.0 6.0 0.00 0.34 0.24 96 1009.4
20260507113101 48 321 2.0 8.0 0.00 0.34 0.24 96 1009.2
20260507112557 48 306 1.0 8.0 0.00 0.34 0.24 96 1009.3
20260507112101 49 5 0.0 3.0 0.00 0.34 0.24 96 1009.2
20260507111606 48 0 0.0 0.0 0.00 0.34 0.24 96 1009.3
20260507111057 48 0.0 0.0 0.00 0.34 0.24 96 1009.3
20260507110557 48 0.0 0.0 0.00 0.34 0.24 96 1009.2
20260507110110 48 0.0 0.0 0.00 0.34 0.24 96 1009.0
20260507105555 48 0.0 0.0 0.00 0.34 0.24 96 1008.9
20260507105054 49 0.0 0.0 0.00 0.34 0.24 96 1008.9
20260507104556 49 0.0 0.0 0.00 0.34 0.24 96 1008.8
20260507104054 48 0.0 0.0 0.01 0.34 0.24 96 1008.7
20260507103557 49 0.0 0.0 0.01 0.34 0.24 96 1008.7
20260507103056 49 0.0 0.0 0.01 0.34 0.24 96 1008.7
20260507102558 49 0.0 0.0 0.01 0.34 0.24 96 1008.4
20260507102058 48 0.0 0.0 0.01 0.34 0.24 96 1008.6
20260507101604 48 0.0 0.0 0.02 0.34 0.24 96 1008.9
20260507101058 48 0.0 0.0 0.02 0.34 0.24 96 1008.8
20260507100557 48 0.0 0.0 0.02 0.34 0.24 95 1008.7
20260507100058 48 0.0 0.0 0.02 0.34 0.24 95 1008.7
20260507095558 48 0.0 0.0 0.03 0.34 0.24 95 1008.8
20260507095101 48 0.0 0.0 0.04 0.34 0.24 96 1008.6
20260507094557 48 0.0 0.0 0.04 0.34 0.24 96 1008.7
20260507094057 48 0.0 0.0 0.03 0.33 0.23 96 1008.5
20260507093557 48 0.0 0.0 0.03 0.33 0.23 96 1008.5
20260507093059 48 0.0 0.0 0.03 0.33 0.23 95 1008.5
20260507092601 48 0.0 0.0 0.03 0.33 0.23 95 1008.1
20260507092054 48 0.0 0.0 0.04 0.33 0.23 95 1007.9
20260507091601 48 0.0 0.0 0.03 0.32 0.22 95 1007.9
20260507091054 48 0.0 0.0 0.03 0.32 0.22 95 1007.9
20260507090556 48 0.0 0.0 0.04 0.32 0.22 95 1007.8
20260507090058 48 0.0 0.0 0.05 0.32 0.22 95 1007.9
20260507085558 48 0.0 0.0 0.04 0.31 0.21 95 1007.9
20260507085058 49 0.0 0.0 0.04 0.30 0.20 95 1008.2
20260507084557 49 0.0 0.0 0.04 0.30 0.20 95 1008.2
20260507084101 49 0.0 0.0 0.04 0.30 0.20 95 1008.0
20260507083558 49 0.0 0.0 0.04 0.30 0.20 95 1008.1
20260507083056 49 0.0 0.0 0.05 0.30 0.20 95 1008.0
20260507082557 49 0.0 0.0 0.05 0.30 0.20 95 1008.1
20260507082100 49 0.0 0.0 0.04 0.29 0.19 95 1007.9
20260507081602 49 0.0 0.0 0.05 0.29 0.19 95 1007.6
20260507081057 49 0.0 0.0 0.06 0.29 0.19 95 1007.9
20260507080559 49 0.0 0.0 0.05 0.28 0.18 95 1008.1
20260507080100 49 0.0 0.0 0.04 0.27 0.17 95 1008.3
20260507075557 49 0.0 0.0 0.05 0.27 0.17 95 1008.4
20260507075058 49 0.0 0.0 0.04 0.26 0.16 95 1008.2
20260507074608 49 0.0 0.0 0.05 0.26 0.16 95 1007.9
20260507074054 49 0.0 0.0 0.05 0.26 0.16 95 1007.7
20260507073554 49 0.0 0.0 0.05 0.26 0.16 95 1007.9
20260507073055 50 0.0 0.0 0.06 0.25 0.15 95 1008.1
20260507072557 50 0.0 0.0 0.09 0.25 0.15 95 1008.1
20260507072058 50 0.0 0.0 0.11 0.25 0.15 95 1008.4
20260507071556 50 0.0 0.0 0.13 0.24 0.14 94 1008.4
20260507071058 50 0.0 0.0 0.12 0.23 0.13 94 1008.1
20260507070558 50 0.0 0.0 0.13 0.23 0.13 94 1008.3
20260507070058 51 0.0 0.0 0.13 0.23 0.13 94 1008.1
20260507065557 51 0.0 0.0 0.12 0.22 0.12 94 1007.9